FW5810 Weather Reports


Display with metric or nautical units.
time (UTC)temp
F
wind
direction
speed
MPH
gust
MPH
rain 1hr
in
rain 24hr
in
rain mn
in
humidity
%
barometer
mb
20260505101809 63 220 8.0 11.0 0.00 0.00 0.00 61 1006.7
20260505101304 64 215 5.0 8.0 0.00 0.00 0.00 60 1006.5
20260505100801 63 154 6.0 8.0 0.00 0.00 0.00 60 1006.5
20260505100257 63 185 6.0 16.0 0.00 0.00 0.00 60 1006.4
20260505095753 63 153 3.0 7.0 0.00 0.00 0.00 61 1006.5
20260505095251 64 260 3.0 11.0 0.00 0.00 0.00 60 1006.4
20260505094746 64 208 7.0 11.0 0.00 0.00 0.00 60 1006.3
20260505094243 64 173 3.0 5.0 0.00 0.00 0.00 60 1006.3
20260505093739 64 225 3.0 10.0 0.00 0.00 0.00 59 1006.0
20260505093237 64 277 7.0 11.0 0.00 0.00 0.00 59 1006.3
20260505092734 64 123 5.0 12.0 0.00 0.00 0.00 59 1006.1
20260505092232 64 218 11.0 16.0 0.00 0.00 0.00 59 1006.0
20260505091729 64 223 5.0 12.0 0.00 0.00 0.00 59 1006.1
20260505091228 64 243 7.0 11.0 0.00 0.00 0.00 59 1006.1
20260505090725 64 238 3.0 5.0 0.00 0.00 0.00 60 1005.9
20260505090223 64 274 3.0 8.0 0.00 0.00 0.00 58 1006.0
20260505085720 64 251 9.0 16.0 0.00 0.00 0.00 58 1006.0
20260505085218 64 222 4.0 12.0 0.00 0.00 0.00 59 1005.9
20260505084715 64 218 4.0 8.0 0.00 0.00 0.00 59 1005.9
20260505084214 64 229 7.0 11.0 0.00 0.00 0.00 59 1005.8
20260505083710 65 213 3.0 7.0 0.00 0.00 0.00 58 1005.8
20260505083207 65 224 6.0 10.0 0.00 0.00 0.00 58 1005.8
20260505082703 65 213 4.0 10.0 0.00 0.00 0.00 59 1005.7
20260505082201 64 228 10.0 15.0 0.00 0.00 0.00 59 1005.8
20260505081656 64 235 6.0 12.0 0.00 0.00 0.00 59 1005.7
20260505081154 64 231 3.0 14.0 0.00 0.00 0.00 60 1005.7
20260505080651 64 206 6.0 7.0 0.00 0.00 0.00 59 1005.5
20260505080146 64 178 3.0 11.0 0.00 0.00 0.00 59 1005.4
20260505075642 64 187 3.0 7.0 0.00 0.00 0.00 59 1005.3
20260505075139 64 211 9.0 15.0 0.00 0.00 0.00 59 1005.4
20260505074636 64 231 8.0 10.0 0.00 0.00 0.00 60 1005.4
20260505074133 64 209 5.0 11.0 0.00 0.00 0.00 60 1005.2
20260505073631 64 183 4.0 7.0 0.00 0.00 0.00 60 1005.2
20260505073129 64 177 3.0 11.0 0.00 0.00 0.00 59 1005.2
20260505072624 64 250 5.0 10.0 0.00 0.00 0.00 59 1005.2
20260505072121 64 241 7.0 10.0 0.00 0.00 0.00 59 1005.2
20260505071617 64 230 4.0 11.0 0.00 0.00 0.00 59 1005.2
20260505071115 64 180 3.0 11.0 0.00 0.00 0.00 59 1005.1
20260505070612 64 192 4.0 5.0 0.00 0.00 0.00 59 1005.2
20260505070108 64 209 5.0 10.0 0.00 0.00 0.00 59 1005.2
20260505065604 65 261 5.0 15.0 0.00 0.00 0.00 58 1005.2
20260505065101 64 216 7.0 8.0 0.00 0.00 0.00 59 1005.3
20260505064558 65 236 10.0 11.0 0.00 0.00 0.00 59 1005.3
20260505064056 65 211 4.0 12.0 0.00 0.00 0.00 58 1005.3
20260505063553 65 244 11.0 14.0 0.00 0.00 0.00 58 1005.5
20260505063049 65 218 3.0 8.0 0.00 0.00 0.00 59 1005.5
20260505062545 65 240 7.0 11.0 0.00 0.00 0.00 59 1005.4
20260505062043 65 197 4.0 7.0 0.00 0.00 0.00 58 1005.7
20260505061540 65 198 3.0 5.0 0.00 0.00 0.00 58 1005.6
20260505061038 65 245 5.0 11.0 0.00 0.00 0.00 58 1005.6
20260505060535 65 205 5.0 11.0 0.00 0.00 0.00 57 1005.6
20260505060032 65 216 3.0 5.0 0.00 0.00 0.00 58 1005.7
20260505055527 65 207 5.0 8.0 0.00 0.00 0.00 58 1005.9
20260505055024 65 210 4.0 10.0 0.00 0.00 0.00 58 1005.9
20260505054521 65 166 6.0 10.0 0.00 0.00 0.00 58 1005.9
20260505054020 65 258 7.0 8.0 0.00 0.00 0.00 58 1006.2
20260505053516 65 214 3.0 8.0 0.00 0.00 0.00 59 1006.2
20260505053013 64 273 6.0 8.0 0.00 0.00 0.00 60 1006.1
20260505052510 64 215 5.0 7.0 0.00 0.00 0.00 60 1006.2
20260505052008 64 222 3.0 7.0 0.00 0.00 0.00 61 1006.1
20260505051504 64 177 3.0 5.0 0.00 0.00 0.00 60 1006.2
20260505051003 64 220 6.0 8.0 0.00 0.00 0.00 60 1006.4
20260505050500 64 222 4.0 10.0 0.00 0.00 0.00 61 1006.4
20260505041428 64 215 6.0 11.0 0.00 0.00 0.00 60 1006.4
20260505040925 63 223 3.0 10.0 0.00 0.00 0.00 61 1006.6
20260505040423 63 221 3.0 5.0 0.00 0.00 0.00 61 1006.6
20260505035919 63 208 3.0 7.0 0.00 0.00 0.00 60 1006.6
20260505035415 63 210 3.0 7.0 0.00 0.00 0.00 60 1006.6
20260505034912 63 180 2.0 8.0 0.00 0.00 0.00 60 1006.7
20260505034409 63 188 3.0 8.0 0.00 0.00 0.00 60 1006.8
20260505033906 63 172 3.0 8.0 0.00 0.00 0.00 59 1006.7
20260505033403 63 234 8.0 11.0 0.00 0.00 0.00 59 1006.6
20260505032901 63 213 5.0 8.0 0.00 0.00 0.00 59 1006.4
20260505032357 64 172 3.0 8.0 0.00 0.00 0.00 58 1006.5
20260505031854 64 183 3.0 5.0 0.00 0.00 0.00 58 1006.6
20260505031351 64 201 4.0 7.0 0.00 0.00 0.00 58 1006.6
20260505030848 64 166 5.0 10.0 0.00 0.00 0.00 58 1006.7
20260505030344 64 211 5.0 5.0 0.00 0.00 0.00 58 1006.6
20260505025839 64 205 1.0 7.0 0.00 0.00 0.00 58 1006.6
20260505025337 64 180 7.0 8.0 0.00 0.00 0.00 57 1006.7
20260505024836 64 183 2.0 5.0 0.00 0.00 0.00 57 1006.8
20260505024333 64 199 4.0 5.0 0.00 0.00 0.00 57 1006.6
20260505023830 64 168 3.0 5.0 0.00 0.00 0.00 57 1006.8
20260505023327 64 200 2.0 3.0 0.00 0.00 0.00 57 1006.9
20260505022824 64 222 6.0 8.0 0.00 0.00 0.00 56 1007.0
20260505022321 65 213 3.0 7.0 0.00 0.00 0.00 56 1007.0
20260505021819 65 202 2.0 5.0 0.00 0.00 0.00 56 1007.1
20260505021315 65 219 4.0 4.0 0.00 0.00 0.00 56 1007.1
20260505020811 65 214 3.0 4.0 0.00 0.00 0.00 56 1006.9
20260505020307 65 253 4.0 7.0 0.00 0.00 0.00 56 1007.1
20260505015804 65 228 6.0 7.0 0.00 0.00 0.00 55 1006.9
20260505015301 66 208 3.0 5.0 0.00 0.00 0.00 54 1006.9
20260505014758 66 233 3.0 7.0 0.00 0.00 0.00 53 1006.8
20260505014255 66 233 3.0 7.0 0.00 0.00 0.00 53 1006.8
20260505013751 66 217 5.0 8.0 0.00 0.00 0.00 53 1006.7
20260505013248 66 185 3.0 10.0 0.00 0.00 0.00 52 1006.9
20260505012746 66 215 3.0 14.0 0.00 0.00 0.00 52 1006.8
20260505012238 67 234 5.0 10.0 0.00 0.00 0.00 52 1006.8
20260505011733 67 183 4.0 8.0 0.00 0.00 0.00 51 1006.3
20260505011231 67 214 10.0 12.0 0.00 0.00 0.00 51 1006.5
20260505010726 67 193 7.0 15.0 0.00 0.00 0.00 51 1006.3
20260505010223 67 193 7.0 15.0 0.00 0.00 0.00 51 1006.3
20260505005720 67 114 4.0 12.0 0.00 0.00 0.00 51 1006.4
20260505005217 67 197 8.0 8.0 0.00 0.00 0.00 51 1006.4
20260505004714 68 142 8.0 10.0 0.00 0.00 0.00 50 1006.1
20260505004210 68 244 7.0 10.0 0.00 0.00 0.00 50 1006.2
20260505003708 68 228 7.0 11.0 0.00 0.00 0.00 49 1006.1
20260505003206 68 203 3.0 12.0 0.00 0.00 0.00 49 1006.0
20260505002701 68 247 6.0 8.0 0.00 0.00 0.00 49 1005.9
20260505002159 69 218 3.0 5.0 0.00 0.00 0.00 48 1005.8
20260505001656 68 174 7.0 14.0 0.00 0.00 0.00 48 1005.7
20260505001154 69 238 5.0 7.0 0.00 0.00 0.00 47 1005.7
20260505000650 69 186 6.0 14.0 0.00 0.00 0.00 47 1005.7
20260505000148 69 276 7.0 11.0 0.00 0.00 0.00 47 1005.6
20260504235644 69 261 6.0 8.0 0.00 0.00 0.00 47 1005.5
20260504235141 69 213 4.0 7.0 0.00 0.00 0.00 48 1005.5
20260504234638 69 202 4.0 11.0 0.00 0.00 0.00 47 1005.5
20260504234130 70 213 12.0 18.0 0.00 0.00 0.00 46 1005.5
20260504233625 70 202 9.0 15.0 0.00 0.00 0.00 47 1005.3
20260504233121 70 175 6.0 10.0 0.00 0.00 0.00 48 1005.5
20260504232620 70 276 8.0 12.0 0.00 0.00 0.00 46 1005.5
20260504232116 70 237 13.0 18.0 0.00 0.00 0.00 47 1005.4
20260504231613 71 224 3.0 8.0 0.00 0.00 0.00 47 1005.5
20260504231109 71 196 7.0 16.0 0.00 0.00 0.00 46 1005.4
20260504230605 71 263 14.0 22.0 0.00 0.00 0.00 46 1005.6
20260504230104 71 215 7.0 11.0 0.00 0.00 0.00 46 1005.5
20260504225602 71 217 6.0 14.0 0.00 0.00 0.00 46 1005.8
20260504225058 71 242 11.0 14.0 0.00 0.00 0.00 47 1005.7
20260504224555 70 227 4.0 11.0 0.00 0.00 0.00 47 1005.8
20260504224052 70 218 3.0 11.0 0.00 0.00 0.00 48 1005.9
20260504223549 70 206 6.0 7.0 0.00 0.00 0.00 48 1005.8
20260504223044 70 185 5.0 12.0 0.00 0.00 0.00 47 1006.0
20260504222542 70 202 7.0 14.0 0.00 0.00 0.00 47 1006.1
20260504222039 70 265 11.0 15.0 0.00 0.00 0.00 46 1006.0
20260504221536 71 225 6.0 15.0 0.00 0.00 0.00 47 1006.1
20260504221033 71 203 4.0 14.0 0.00 0.00 0.00 47 1006.1
20260504220529 71 215 11.0 14.0 0.00 0.00 0.00 46 1006.2
20260504220026 70 216 3.0 7.0 0.00 0.00 0.00 48 1006.1
20260504215523 70 206 5.0 8.0 0.00 0.00 0.00 47 1006.2
20260504215020 71 219 6.0 19.0 0.00 0.00 0.00 46 1006.1
20260504214516 71 209 4.0 10.0 0.00 0.00 0.00 46 1006.1
20260504214012 72 222 7.0 18.0 0.00 0.00 0.00 45 1006.0
20260504213509 72 231 11.0 18.0 0.00 0.00 0.00 44 1006.0
20260504213007 72 209 7.0 12.0 0.00 0.00 0.00 45 1006.3
20260504212502 72 273 8.0 12.0 0.00 0.00 0.00 45 1006.3
20260504212000 71 264 3.0 4.0 0.00 0.00 0.00 47 1006.2
20260504211456 70 274 5.0 15.0 0.00 0.00 0.00 45 1006.4
20260504210954 70 226 9.0 18.0 0.00 0.00 0.00 45 1006.2
20260504210450 70 227 11.0 12.0 0.00 0.00 0.00 44 1006.4
20260504205947 71 190 9.0 15.0 0.00 0.00 0.00 44 1006.3
20260504205445 71 241 9.0 15.0 0.00 0.00 0.00 45 1006.5
20260504204943 72 264 4.0 15.0 0.00 0.00 0.00 44 1006.2
20260504204441 71 210 6.0 10.0 0.00 0.00 0.00 44 1006.3
20260504203940 71 210 11.0 14.0 0.00 0.00 0.00 43 1006.4
20260504203437 72 236 9.0 12.0 0.00 0.00 0.00 42 1006.6
20260504202933 72 264 5.0 7.0 0.00 0.00 0.00 45 1006.4
20260504202430 73 206 5.0 12.0 0.00 0.00 0.00 43 1006.4
20260504201926 72 147 5.0 11.0 0.00 0.00 0.00 42 1006.5
20260504201424 72 171 7.0 11.0 0.00 0.00 0.00 41 1006.6
20260504200921 72 226 5.0 14.0 0.00 0.00 0.00 43 1006.4
20260504200418 72 213 9.0 15.0 0.00 0.00 0.00 42 1006.6
20260504195915 72 215 6.0 8.0 0.00 0.00 0.00 42 1006.7
20260504195410 72 219 6.0 10.0 0.00 0.00 0.00 45 1006.9
20260504194907 72 213 6.0 11.0 0.00 0.00 0.00 42 1006.7
20260504194403 72 194 8.0 14.0 0.00 0.00 0.00 42 1006.9
20260504193859 72 214 7.0 14.0 0.00 0.00 0.00 45 1006.9
20260504193356 71 201 9.0 12.0 0.00 0.00 0.00 43 1007.1
20260504192855 71 224 9.0 12.0 0.00 0.00 0.00 43 1007.4
20260504192352 71 220 7.0 12.0 0.00 0.00 0.00 45 1007.1
20260504191850 71 212 8.0 15.0 0.00 0.00 0.00 45 1007.4
20260504191348 71 260 10.0 14.0 0.00 0.00 0.00 41 1007.4
20260504190843 70 177 8.0 12.0 0.00 0.00 0.00 44 1007.6
20260504190339 71 187 10.0 15.0 0.00 0.00 0.00 45 1007.6
20260504185836 71 233 3.0 7.0 0.00 0.00 0.00 45 1007.5
20260504185333 71 198 5.0 8.0 0.00 0.00 0.00 43 1007.6
20260504184829 71 261 5.0 18.0 0.00 0.00 0.00 43 1007.7
20260504184326 70 154 5.0 10.0 0.00 0.00 0.00 45 1007.9
20260504183821 70 223 6.0 12.0 0.00 0.00 0.00 44 1007.7
20260504183319 69 207 10.0 16.0 0.00 0.00 0.00 44 1007.8
20260504182817 69 116 11.0 12.0 0.00 0.00 0.00 43 1007.7
20260504182314 69 214 9.0 15.0 0.00 0.00 0.00 43 1007.9
20260504181811 69 277 4.0 14.0 0.00 0.00 0.00 44 1008.0
20260504181308 69 247 8.0 16.0 0.00 0.00 0.00 42 1008.2
20260504180807 70 232 10.0 16.0 0.00 0.00 0.00 43 1008.0
20260504180305 69 182 5.0 15.0 0.00 0.00 0.00 42 1008.2
20260504175803 69 55 5.0 12.0 0.00 0.00 0.00 43 1008.1
20260504175259 69 231 7.0 12.0 0.00 0.00 0.00 42 1008.1
20260504174757 69 310 8.0 16.0 0.00 0.00 0.00 41 1008.2
20260504174255 68 247 9.0 12.0 0.00 0.00 0.00 47 1008.3
20260504173751 68 124 6.0 15.0 0.00 0.00 0.00 42 1008.2
20260504173248 69 165 5.0 8.0 0.00 0.00 0.00 42 1008.3
20260504172745 68 152 5.0 11.0 0.00 0.00 0.00 44 1008.3
20260504172242 68 168 7.0 15.0 0.00 0.00 0.00 42 1008.6
20260504171738 68 205 5.0 12.0 0.00 0.00 0.00 43 1008.3
20260504171235 68 286 5.0 10.0 0.00 0.00 0.00 46 1008.5
20260504170732 68 126 2.0 11.0 0.00 0.00 0.00 45 1008.6
20260504170229 68 166 8.0 15.0 0.00 0.00 0.00 43 1008.5
20260504160147 65 217 5.0 15.0 0.00 0.00 0.00 45 1009.3
20260504151115 63 265 8.0 12.0 0.00 0.00 0.00 47 1009.9
20260504150613 62 214 7.0 15.0 0.00 0.00 0.00 50 1009.7
20260504150109 62 242 8.0 15.0 0.00 0.00 0.00 49 1009.8
20260504141038 60 216 4.0 8.0 0.00 0.00 0.00 48 1009.7
20260504140534 60 63 1.0 11.0 0.00 0.00 0.00 50 1009.9
20260504130459 57 237 3.0 8.0 0.00 0.00 0.00 50 1010.3
20260504110345 51 208 4.0 5.0 0.00 0.00 0.00 56 1010.3